When you browse on this site, cookies collect data to enhance your experience and personalize the content and advertising you see.
Visit our Privacy Policy to learn more. By continuing to use the site, you agree to this use of cookies and data.
  • In Romania
  • List of Countries
  • For 7 days
  • Water Temperature
  • Satellite Maps
  • Weather Map
  • Weather Widgets
  • user-avatar
    Login

    Hourly Weather Tacna

    Today, 20 May, Monday

    Time Temperature Precipitation Wind Pressure Humidity
    00:00 +19°C° 0 mm 1 mps 705 mmHg 77%
    01:00 +18°C° 0 mm 1 mps 705 mmHg 77%
    02:00 +18°C° 0 mm 1 mps 705 mmHg 77%
    03:00 +18°C° 0 mm 1 mps 704 mmHg 77%
    04:00 +18°C° 0 mm 1 mps 704 mmHg 77%
    05:00 +18°C° 0 mm 1 mps 704 mmHg 74%
    06:00 +19°C° 0 mm 1 mps 705 mmHg 72%
    07:00 +19°C° 0 mm 1 mps 705 mmHg 69%
    08:00 +19°C° 0 mm 2 mps 705 mmHg 66%
    09:00 +20°C° 0 mm 2 mps 705 mmHg 62%
    10:00 +21°C° 0 mm 3 mps 705 mmHg 58%
    11:00 +21°C° 0 mm 3 mps 705 mmHg 58%
    12:00 +22°C° 0 mm 3 mps 704 mmHg 58%
    13:00 +22°C° 0 mm 3 mps 704 mmHg 58%
    14:00 +22°C° 0 mm 3 mps 704 mmHg 61%
    15:00 +21°C° 0 mm 3 mps 704 mmHg 63%
    16:00 +21°C° 0 mm 2 mps 704 mmHg 65%
    17:00 +21°C° 0 mm 2 mps 704 mmHg 66%
    18:00 +20°C° 0 mm 2 mps 705 mmHg 67%
    19:00 +20°C° 0 mm 2 mps 705 mmHg 69%
    20:00 +19°C° 0 mm 2 mps 705 mmHg 69%
    21:00 +19°C° 0 mm 2 mps 705 mmHg 69%
    22:00 +19°C° 0 mm 2 mps 706 mmHg 69%
    23:00 +18°C° 0 mm 2 mps 705 mmHg 68%

    Tomorrow, 21 May, Tuesday

    Time Temperature Precipitation Wind Pressure Humidity
    00:00 +18°C° 0 mm 2 mps 705 mmHg 68%
    01:00 +19°C° 0 mm 1 mps 704 mmHg 68%
    02:00 +18°C° 0 mm 1 mps 704 mmHg 68%
    03:00 +18°C° 0 mm 1 mps 704 mmHg 68%
    04:00 +18°C° 0 mm 1 mps 703 mmHg 68%
    05:00 +18°C° 0 mm 1 mps 704 mmHg 67%
    06:00 +19°C° 0 mm 1 mps 704 mmHg 65%
    07:00 +19°C° 0 mm 1 mps 704 mmHg 64%
    08:00 +19°C° 0 mm 2 mps 704 mmHg 61%
    09:00 +20°C° 0 mm 2 mps 704 mmHg 58%
    10:00 +23°C° 0 mm 2 mps 705 mmHg 55%
    11:00 +22°C° 0 mm 3 mps 704 mmHg 55%
    12:00 +22°C° 0 mm 3 mps 703 mmHg 56%
    13:00 +24°C° 0 mm 3 mps 703 mmHg 56%
    14:00 +22°C° 0 mm 3 mps 702 mmHg 59%
    15:00 +23°C° 0 mm 2 mps 702 mmHg 62%
    16:00 +21°C° 0 mm 2 mps 702 mmHg 65%
    17:00 +21°C° 0 mm 2 mps 702 mmHg 67%
    18:00 +20°C° 0 mm 2 mps 703 mmHg 69%
    19:00 +21°C° 0 mm 1 mps 704 mmHg 70%
    20:00 +21°C° 0 mm 1 mps 704 mmHg 70%
    21:00 +20°C° 0 mm 1 mps 704 mmHg 69%
    22:00 +20°C° 0 mm 1 mps 705 mmHg 68%
    23:00 +20°C° 0 mm 1 mps 705 mmHg 68%

    Day after tomorrow, 22 May, Wednesday

    Time Temperature Precipitation Wind Pressure Humidity
    00:00 +20°C° 0 mm 1 mps 704 mmHg 67%
    01:00 +19°C° 0 mm 1 mps 704 mmHg 67%
    02:00 +19°C° 0 mm 1 mps 704 mmHg 67%
    03:00 +19°C° 0 mm 1 mps 704 mmHg 67%
    04:00 +18°C° 0 mm 1 mps 703 mmHg 67%
    05:00 +19°C° 0 mm 1 mps 704 mmHg 65%
    06:00 +19°C° 0 mm 1 mps 704 mmHg 63%
    07:00 +20°C° 0 mm 1 mps 705 mmHg 61%
    08:00 +21°C° 0 mm 1 mps 705 mmHg 56%
    09:00 +23°C° 0 mm 2 mps 705 mmHg 51%
    10:00 +24°C° 0 mm 2 mps 705 mmHg 46%
    11:00 +25°C° 0 mm 2 mps 704 mmHg 46%
    12:00 +25°C° 0 mm 3 mps 704 mmHg 47%
    13:00 +25°C° 0 mm 3 mps 703 mmHg 47%
    14:00 +25°C° 0 mm 3 mps 703 mmHg 50%
    15:00 +24°C° 0 mm 2 mps 703 mmHg 53%
    16:00 +24°C° 0 mm 2 mps 703 mmHg 55%
    17:00 +23°C° 0 mm 2 mps 703 mmHg 57%
    18:00 +23°C° 0 mm 1 mps 704 mmHg 58%
    19:00 +22°C° 0 mm 1 mps 704 mmHg 59%
    20:00 +22°C° 0 mm 1 mps 705 mmHg 58%
    21:00 +21°C° 0 mm 1 mps 705 mmHg 57%
    22:00 +21°C° 0 mm 1 mps 705 mmHg 56%
    23:00 +21°C° 0 mm 1 mps 705 mmHg 56%

    23 May, Thursday

    Time Temperature Precipitation Wind Pressure Humidity
    00:00 +20°C° 0 mm 1 mps 704 mmHg 56%
    01:00 +20°C° 0 mm 1 mps 704 mmHg 57%
    02:00 +19°C° 0 mm 1 mps 704 mmHg 57%
    03:00 +19°C° 0 mm 1 mps 704 mmHg 57%
    04:00 +19°C° 0 mm 1 mps 703 mmHg 57%
    05:00 +19°C° 0 mm 1 mps 704 mmHg 54%
    06:00 +20°C° 0 mm 1 mps 704 mmHg 51%
    07:00 +21°C° 0 mm 1 mps 705 mmHg 48%
    08:00 +23°C° 0 mm 1 mps 705 mmHg 44%
    09:00 +24°C° 0 mm 2 mps 705 mmHg 39%
    10:00 +26°C° 0 mm 2 mps 705 mmHg 35%
    11:00 +27°C° 0 mm 2 mps 704 mmHg 36%
    12:00 +27°C° 0 mm 2 mps 704 mmHg 37%
    13:00 +27°C° 0 mm 3 mps 703 mmHg 38%
    14:00 +26°C° 0 mm 3 mps 703 mmHg 42%
    15:00 +26°C° 0 mm 2 mps 703 mmHg 45%
    16:00 +25°C° 0 mm 2 mps 703 mmHg 49%
    17:00 +24°C° 0 mm 2 mps 704 mmHg 51%
    18:00 +23°C° 0 mm 1 mps 704 mmHg 53%
    19:00 +23°C° 0 mm 1 mps 705 mmHg 55%
    20:00 +22°C° 0 mm 1 mps 705 mmHg 55%
    21:00 +22°C° 0 mm 1 mps 705 mmHg 54%
    22:00 +21°C° 0 mm 1 mps 705 mmHg 53%
    23:00 +21°C° 0 mm 1 mps 704 mmHg 53%

    24 May, Friday

    Time Temperature Precipitation Wind Pressure Humidity
    00:00 +20°C° 0 mm 1 mps 704 mmHg 53%
    01:00 +20°C° 0 mm 1 mps 704 mmHg 53%
    02:00 +19°C° 0 mm 1 mps 703 mmHg 52%
    03:00 +19°C° 0 mm 1 mps 703 mmHg 51%
    04:00 +19°C° 0 mm 1 mps 703 mmHg 51%
    05:00 +19°C° 0 mm 1 mps 703 mmHg 50%
    06:00 +20°C° 0 mm 1 mps 704 mmHg 49%
    07:00 +20°C° 0 mm 1 mps 704 mmHg 48%
    08:00 +22°C° 0 mm 1 mps 704 mmHg 44%
    09:00 +24°C° 0 mm 2 mps 704 mmHg 40%
    10:00 +25°C° 0 mm 2 mps 705 mmHg 36%
    11:00 +26°C° 0 mm 2 mps 704 mmHg 37%
    12:00 +26°C° 0 mm 2 mps 703 mmHg 38%
    13:00 +26°C° 0 mm 3 mps 703 mmHg 39%
    14:00 +26°C° 0 mm 3 mps 703 mmHg 42%
    15:00 +25°C° 0 mm 2 mps 703 mmHg 45%
    16:00 +24°C° 0 mm 2 mps 702 mmHg 48%
    17:00 +23°C° 0 mm 2 mps 703 mmHg 52%
    18:00 +23°C° 0 mm 1 mps 704 mmHg 56%
    19:00 +22°C° 0 mm 1 mps 705 mmHg 60%
    20:00 +21°C° 0 mm 1 mps 705 mmHg 60%
    21:00 +21°C° 0 mm 1 mps 705 mmHg 61%
    22:00 +19°C° 0 mm 0 mps 705 mmHg 61%
    23:00 +18°C° 0 mm 0 mps 704 mmHg 60%

    25 May, Saturday

    Time Temperature Precipitation Wind Pressure Humidity
    00:00 +20°C° 0 mm 1 mps 704 mmHg 59%
    01:00 +20°C° 0 mm 1 mps 704 mmHg 57%
    02:00 +19°C° 0 mm 1 mps 704 mmHg 61%
    03:00 +18°C° 0 mm 1 mps 704 mmHg 64%
    04:00 +18°C° 0 mm 1 mps 704 mmHg 68%
    05:00 +18°C° 0 mm 1 mps 704 mmHg 64%
    06:00 +19°C° 0 mm 1 mps 705 mmHg 60%
    07:00 +20°C° 0 mm 1 mps 705 mmHg 56%
    08:00 +21°C° 0 mm 1 mps 705 mmHg 51%
    09:00 +23°C° 0 mm 2 mps 705 mmHg 46%
    10:00 +24°C° 0 mm 2 mps 705 mmHg 42%
    11:00 +25°C° 0 mm 3 mps 705 mmHg 42%
    12:00 +25°C° 0 mm 3 mps 704 mmHg 42%
    13:00 +25°C° 0 mm 3 mps 703 mmHg 42%
    14:00 +25°C° 0 mm 3 mps 703 mmHg 45%
    15:00 +24°C° 0 mm 3 mps 703 mmHg 49%
    16:00 +22°C° 0 mm 3 mps 703 mmHg 53%
    17:00 +21°C° 0 mm 2 mps 704 mmHg 57%
    18:00 +21°C° 0 mm 2 mps 704 mmHg 61%
    19:00 +21°C° 0 mm 1 mps 705 mmHg 65%
    20:00 +21°C° 0 mm 1 mps 705 mmHg 64%
    21:00 +20°C° 0 mm 1 mps 705 mmHg 63%
    22:00 +20°C° 0 mm 1 mps 705 mmHg 63%
    23:00 +20°C° 0 mm 1 mps 705 mmHg 64%
    Show more